• în România
  • Lista ţărilor
  • Pe 7 zile
  • Temperatura apei
  • Hartă satelitară
  • Meteo pe hartă
  • Widget-uri
  • user-avatar
    Intrare

    Meteo pe oră la Naftalan

    Astăzi, 22 Mai, Marţi

    Timp Temperatura Precipitaţii Vânt Presiune Umiditate
    00:00 +21°C° 0 mm 0 m/s 763 mmHg 47%
    01:00 +23°C° 0 mm 1 m/s 763 mmHg 47%
    02:00 +23°C° 0 mm 1 m/s 763 mmHg 47%
    03:00 +23°C° 0 mm 2 m/s 763 mmHg 47%
    04:00 +24°C° 0 mm 2 m/s 764 mmHg 46%
    05:00 +24°C° 0 mm 1 m/s 764 mmHg 45%
    06:00 +25°C° 0 mm 1 m/s 764 mmHg 44%
    07:00 +27°C° 0 mm 2 m/s 765 mmHg 40%
    08:00 +29°C° 0 mm 2 m/s 765 mmHg 35%
    09:00 +30°C° 0 mm 3 m/s 765 mmHg 31%
    10:00 +32°C° 0 mm 4 m/s 765 mmHg 28%
    11:00 +33°C° 0 mm 5 m/s 765 mmHg 26%
    12:00 +35°C° 0 mm 5 m/s 765 mmHg 23%
    13:00 +34°C° 0 mm 6 m/s 765 mmHg 24%
    14:00 +34°C° 0 mm 6 m/s 765 mmHg 26%
    15:00 +34°C° 0 mm 6 m/s 764 mmHg 27%
    16:00 +32°C° 0 mm 5 m/s 764 mmHg 31%
    17:00 +30°C° 0 mm 5 m/s 765 mmHg 36%
    18:00 +29°C° 0 mm 4 m/s 765 mmHg 40%
    19:00 +27°C° 0 mm 3 m/s 765 mmHg 45%
    20:00 +26°C° 0 mm 2 m/s 765 mmHg 50%
    21:00 +24°C° 0 mm 2 m/s 765 mmHg 54%
    22:00 +24°C° 0 mm 2 m/s 765 mmHg 55%
    23:00 +23°C° 0 mm 2 m/s 765 mmHg 56%

    Mâine, 23 Mai, Miercuri

    Timp Temperatura Precipitaţii Vânt Presiune Umiditate
    00:00 +23°C° 0 mm 2 m/s 765 mmHg 57%
    01:00 +21°C° 0 mm 2 m/s 765 mmHg 57%
    02:00 +21°C° 0 mm 2 m/s 765 mmHg 58%
    03:00 +20°C° 0 mm 2 m/s 765 mmHg 59%
    04:00 +21°C° 0 mm 2 m/s 765 mmHg 56%
    05:00 +23°C° 0 mm 2 m/s 765 mmHg 53%
    06:00 +24°C° 0 mm 3 m/s 765 mmHg 50%
    07:00 +26°C° 0 mm 3 m/s 766 mmHg 43%
    08:00 +28°C° 0 mm 3 m/s 766 mmHg 37%
    09:00 +30°C° 0 mm 3 m/s 766 mmHg 31%
    10:00 +33°C° 0 mm 3 m/s 766 mmHg 27%
    11:00 +34°C° 0 mm 2 m/s 765 mmHg 24%
    12:00 +35°C° 0 mm 2 m/s 765 mmHg 21%
    13:00 +36°C° 0 mm 3 m/s 765 mmHg 20%
    14:00 +36°C° 0 mm 4 m/s 764 mmHg 18%
    15:00 +36°C° 0 mm 4 m/s 764 mmHg 17%
    16:00 +35°C° 0 mm 4 m/s 764 mmHg 22%
    17:00 +33°C° 0 mm 4 m/s 764 mmHg 28%
    18:00 +30°C° 0 mm 4 m/s 763 mmHg 33%
    19:00 +28°C° 0 mm 3 m/s 764 mmHg 37%
    20:00 +26°C° 0 mm 3 m/s 764 mmHg 41%
    21:00 +24°C° 0 mm 3 m/s 764 mmHg 45%
    22:00 +24°C° 0 mm 2 m/s 764 mmHg 44%
    23:00 +23°C° 0 mm 2 m/s 764 mmHg 43%

    Poimâine, 24 Mai, Joi

    Timp Temperatura Precipitaţii Vânt Presiune Umiditate
    00:00 +23°C° 0 mm 1 m/s 764 mmHg 42%
    01:00 +21°C° 0 mm 2 m/s 764 mmHg 42%
    02:00 +21°C° 0 mm 2 m/s 763 mmHg 43%
    03:00 +21°C° 0 mm 2 m/s 763 mmHg 43%
    04:00 +23°C° 0 mm 2 m/s 763 mmHg 42%
    05:00 +23°C° 0 mm 2 m/s 763 mmHg 41%
    06:00 +24°C° 0 mm 1 m/s 763 mmHg 40%
    07:00 +26°C° 0 mm 1 m/s 763 mmHg 35%
    08:00 +28°C° 0 mm 1 m/s 763 mmHg 30%
    09:00 +30°C° 0 mm 1 m/s 763 mmHg 26%
    10:00 +31°C° 0 mm 2 m/s 762 mmHg 23%
    11:00 +32°C° 0 mm 2 m/s 762 mmHg 21%
    12:00 +35°C° 0 mm 3 m/s 762 mmHg 18%
    13:00 +35°C° 0 mm 3 m/s 761 mmHg 19%
    14:00 +35°C° 0 mm 4 m/s 761 mmHg 19%
    15:00 +35°C° 0 mm 5 m/s 760 mmHg 20%
    16:00 +34°C° 0 mm 4 m/s 760 mmHg 25%
    17:00 +32°C° 0 mm 4 m/s 760 mmHg 31%
    18:00 +29°C° 0 mm 4 m/s 760 mmHg 36%
    19:00 +27°C° 0 mm 4 m/s 760 mmHg 41%
    20:00 +26°C° 0 mm 3 m/s 760 mmHg 46%
    21:00 +24°C° 0 mm 3 m/s 760 mmHg 51%
    22:00 +24°C° 0 mm 2 m/s 760 mmHg 52%
    23:00 +23°C° 0 mm 2 m/s 760 mmHg 52%

    25 Mai, Vineri

    Timp Temperatura Precipitaţii Vânt Presiune Umiditate
    00:00 +23°C° 0 mm 2 m/s 759 mmHg 53%
    01:00 +21°C° 0 mm 2 m/s 759 mmHg 53%
    02:00 +21°C° 0 mm 2 m/s 759 mmHg 53%
    03:00 +21°C° 0 mm 2 m/s 759 mmHg 53%
    04:00 +23°C° 0 mm 1 m/s 759 mmHg 51%
    05:00 +23°C° 0 mm 1 m/s 759 mmHg 50%
    06:00 +24°C° 0 mm 1 m/s 759 mmHg 48%
    07:00 +26°C° 0 mm 1 m/s 759 mmHg 43%
    08:00 +28°C° 0 mm 1 m/s 759 mmHg 37%
    09:00 +29°C° 0 mm 1 m/s 759 mmHg 32%
    10:00 +31°C° 0 mm 2 m/s 759 mmHg 29%
    11:00 +32°C° 0 mm 2 m/s 758 mmHg 26%
    12:00 +34°C° 0 mm 3 m/s 758 mmHg 22%
    13:00 +34°C° 0 mm 3 m/s 757 mmHg 22%
    14:00 +35°C° 0 mm 4 m/s 757 mmHg 22%
    15:00 +35°C° 0 mm 4 m/s 756 mmHg 22%
    16:00 +33°C° 0 mm 4 m/s 756 mmHg 25%
    17:00 +32°C° 0 mm 4 m/s 756 mmHg 29%
    18:00 +29°C° 0 mm 4 m/s 756 mmHg 33%
    19:00 +28°C° 0 mm 4 m/s 757 mmHg 39%
    20:00 +26°C° 0 mm 3 m/s 757 mmHg 45%
    21:00 +25°C° 0 mm 3 m/s 757 mmHg 51%
    22:00 +24°C° 0 mm 2 m/s 757 mmHg 53%
    23:00 +24°C° 0 mm 2 m/s 757 mmHg 54%

    26 Mai, Sâmbătă

    Timp Temperatura Precipitaţii Vânt Presiune Umiditate
    00:00 +24°C° 0 mm 2 m/s 756 mmHg 56%
    01:00 +23°C° 0 mm 1 m/s 756 mmHg 57%
    02:00 +23°C° 0 mm 1 m/s 756 mmHg 58%
    03:00 +23°C° 0 mm 1 m/s 756 mmHg 59%
    04:00 +23°C° 0 mm 1 m/s 756 mmHg 56%
    05:00 +24°C° 0 mm 1 m/s 757 mmHg 54%
    06:00 +25°C° 0 mm 1 m/s 757 mmHg 51%
    07:00 +27°C° 0 mm 1 m/s 757 mmHg 44%
    08:00 +29°C° 0 mm 1 m/s 757 mmHg 38%
    09:00 +31°C° 0 mm 2 m/s 758 mmHg 32%
    10:00 +33°C° 0 mm 3 m/s 758 mmHg 29%
    11:00 +34°C° 0 mm 4 m/s 758 mmHg 27%
    12:00 +36°C° 0 mm 5 m/s 758 mmHg 24%
    13:00 +35°C° 0 mm 6 m/s 758 mmHg 29%
    14:00 +34°C° 0 mm 8 m/s 758 mmHg 34%
    15:00 +33°C° 0 mm 9 m/s 758 mmHg 40%
    16:00 +32°C° 0,1 mm 10 m/s 759 mmHg 42%
    17:00 +29°C° 0,1 mm 12 m/s 760 mmHg 44%
    18:00 +28°C° 0,1 mm 13 m/s 760 mmHg 47%
    19:00 +26°C° 0,2 mm 13 m/s 761 mmHg 50%
    20:00 +23°C° 0,2 mm 13 m/s 762 mmHg 53%
    21:00 +22°C° 0,2 mm 13 m/s 763 mmHg 56%
    22:00 +20°C° 0 mm 13 m/s 763 mmHg 56%
    23:00 +21°C° 0 mm 12 m/s 764 mmHg 55%

    27 Mai, Duminică

    Timp Temperatura Precipitaţii Vânt Presiune Umiditate
    00:00 +19°C° 0 mm 12 m/s 764 mmHg 55%
    01:00 +18°C° 0 mm 11 m/s 765 mmHg 55%
    02:00 +18°C° 0 mm 11 m/s 765 mmHg 55%
    03:00 +18°C° 0 mm 11 m/s 766 mmHg 54%
    04:00 +18°C° 0 mm 11 m/s 766 mmHg 56%
    05:00 +17°C° 0 mm 10 m/s 767 mmHg 57%
    06:00 +17°C° 0 mm 10 m/s 768 mmHg 58%
    07:00 +17°C° 0 mm 10 m/s 768 mmHg 60%
    08:00 +17°C° 0 mm 10 m/s 768 mmHg 61%
    09:00 +17°C° 0 mm 9 m/s 769 mmHg 63%
    10:00 +17°C° 0,1 mm 9 m/s 769 mmHg 64%
    11:00 +17°C° 0,1 mm 9 m/s 769 mmHg 65%
    12:00 +17°C° 0,1 mm 8 m/s 770 mmHg 67%
    13:00 +17°C° 0,1 mm 8 m/s 770 mmHg 66%
    14:00 +17°C° 0,1 mm 7 m/s 770 mmHg 65%
    15:00 +17°C° 0,1 mm 6 m/s 770 mmHg 65%
    16:00 +17°C° 0 mm 6 m/s 770 mmHg 65%
    17:00 +19°C° 0 mm 5 m/s 770 mmHg 65%
    18:00 +19°C° 0 mm 5 m/s 771 mmHg 65%
    19:00 +19°C° 0 mm 4 m/s 771 mmHg 66%
    20:00 +18°C° 0 mm 4 m/s 771 mmHg 67%
    21:00 +18°C° 0 mm 3 m/s 771 mmHg 69%
    22:00 +18°C° 0 mm 3 m/s 771 mmHg 71%
    23:00 +18°C° 0 mm 3 m/s 771 mmHg 72%
    Arată mai mult